Regional Weather Roundup
Issued by NWS Sterling, VA

Home | Current Version | Previous Version | Graphics & Text | Print | Product List | Glossary On
Versions: 1 2 3 4 5 6 7 8 9 10 11 12 13 14 15 16 17 18 19 20 21 22 23 24 25 26 27 28 29 30 31 32 33 34 35 36 37 38 39 40 41 42 43 44 45 46 47 48 49 50
000
ASUS41 KLWX 210510
RWRLWX

REGIONAL WEATHER ROUNDUP
NATIONAL WEATHER SERVICE BALTIMORE MD/WASHINGTON DC
1200 AM EST SAT JAN 21 2017

Note: "FAIR" indicates few or no clouds below 12,000 feet
with no significant weather and/or obstructions to visibility.
 TC=TEMPERATURE CELSIUS

 * =Non NWS site. Station does not report precipitation (e.g. rain,
    snow, etc.), thunder, or fog.

DCZ001-MDZ009-015-VAZ040>042-051-053>054-210600-
WASHINGTON METRO

CITY           SKY/WX    TMP DP  RH WIND       PRES   REMARKS
WASHINGTON NAT DRIZZLE   47  47 100 S5        29.92S FOG
DULLES         CLOUDY    47  45  93 S3        29.90F FOG
ANDREWS AFB    CLOUDY    46  46  98 CALM      29.90F FOG
FT BELVOIR     CLOUDY    47  45  95 CALM      29.92S
QUANTICO       FOG       45  45 100 S5        29.93S VSB 1/2
COLLEGE PARK*  CLOUDY    45  43  93 CALM      29.91S
LEESBURG*      CLOUDY    48  48 100 S3        29.91F FOG
GAITHERSBURG*  CLOUDY    46  43  87 SW5       29.94F

$$

MDZ006>007-011-014-210600-
BALTIMORE METRO

CITY           SKY/WX    TMP DP  RH WIND       PRES   REMARKS
BWI AIRPORT    CLOUDY    45  45 100 CALM      29.91S FOG
MD SCIENCE CTR   N/A     45  42  89 MISG      29.92S
ANNAPOLIS      CLOUDY    44  42  93 E3        29.92S FOG
FORT MEADE*    CLOUDY    43  43 100 CALM      29.94S

$$

MDZ012-015-019>023-210600-
MARYLAND EASTERN SHORE

CITY           SKY/WX    TMP DP  RH WIND       PRES   REMARKS
OCEAN CITY     CLOUDY    46  46 100 CALM      29.93S FOG
SALISBURY      CLOUDY    46  45  96 CALM      29.92F FOG
BAY BRIDGE AP* CLOUDY    45  45 100 S5        29.92S FOG
CAMBRIDGE*     CLOUDY    45  43  93 CALM      29.92F
EASTON*        CLOUDY    47  44  90 SW3       29.96S FOG

$$

MDZ017>025-210600-
SOUTHERN MARYLAND

CITY           SKY/WX    TMP DP  RH WIND       PRES   REMARKS
PATUXENT RIVER CLOUDY    46  45  96 SW3       29.93R
ST INIGOES     CLOUDY    46  45  96 CALM      29.92S FOG
LEONARDTOWN*   CLOUDY    45  43  93 CALM      29.93F

$$

MDZ003>005-210600-
NORTH CENTRAL MARYLAND

CITY           SKY/WX    TMP DP  RH WIND       PRES   REMARKS
FREDERICK*     FOG       41  41 100 CALM      29.93F VSB 3/4
HAGERSTOWN APT CLOUDY    43  40  89 CALM      29.88F FOG
WESTMINSTER*   FOG       43  43 100 S3        29.89S VSB 1/2

$$

MDZ501>502-210600-
WESTERN MARYLAND

CITY           SKY/WX    TMP DP  RH WIND       PRES   REMARKS
OAKLAND*         N/A     46  45  93 SW8       29.86S
CUMBERLAND*    CLOUDY    43  43 100 CALM      29.92F

$$

VAZ025>031-210600-
SHENANDOAH VALLEY

CITY           SKY/WX    TMP DP  RH WIND       PRES   REMARKS
WINCHESTER*    FOG       37  37 100 CALM      29.88S VSB 1/4
FRONT ROYAL*   CLOUDY    37  37 100 CALM      29.88S VSB 1/4
LURAY*         FOG       39  39 100 CALM      29.89R VSB 3/4
NEW MARKET*    CLOUDY    37  37  97 CALM      29.88S VSB 1/2
STAUNTON*      FOG       42  42 100 CALM      29.92S VSB 1/4
WAYNESBORO*    CLOUDY    44  43  96 CALM      29.90S VSB 1/4

$$

WVZ021-048>050-054>055-210600-
EASTERN WEST VIRGINIA PANHANDLE

CITY           SKY/WX    TMP DP  RH WIND       PRES   REMARKS
MARTINSBURG    CLOUDY    42  41  96 CALM      29.88F FOG
PETERSBURG*    FOG       38  38  99 CALM      29.90S VSB 1/4

$$

VAZ036>039-050-210600-
CENTRAL FOOTHILLS

CITY           SKY/WX    TMP DP  RH WIND       PRES   REMARKS
CHARLOTTESVILL CLOUDY    50  48  93 CALM      29.91R FOG
CULPEPER*      CLOUDY    49  49  97 SW5       29.92S
ORANGE*          N/A     50  50 100 SW6       29.93S FOG
GORDONSVILLE*  CLOUDY    48  48 100 SW7       29.91S FOG
WARRENTON*     CLOUDY    49  46  89 SW3       29.90S FOG

$$

VAZ055>057-210600-
NORTH AND CENTRAL PIEDMONT

CITY           SKY/WX    TMP DP  RH WIND       PRES   REMARKS
FREDERICKSBRG* CLOUDY    48  48 100 CALM      29.91F FOG
STAFFORD*      CLOUDY    47  47 100 CALM      29.95F FOG

$$

NCZ024-NYZ072-PAZ021-071-VAZ022-071-210600-
OTHER REGIONAL OBSERVATIONS

CITY           SKY/WX    TMP DP  RH WIND       PRES   REMARKS
NEW YORK CITY  CLOUDY    41  40  96 CALM      29.94S FOG
PHILADELPHIA   CLOUDY    43  40  89 CALM      29.94S
PITTSBURGH     PTCLDY    49  48  97 CALM      29.82R
ROANOKE        FOG       47  47 100 CALM      29.93F VSB 1/4
RICHMOND       FOG       47  47 100 S3        29.92S VSB 1/2
RALEIGH        FOG       53  53 100 NE3       29.92F VSB 1/2

$$

ANZ530>537-210600-
MARINE OBSERVATIONS

STATION/POSITION TIME  TEMP    WIND        PRES
                       AIR SEA DIR/SP/G
                 (UTC) (F)     (DEG/KT/KT) (MB)
THOMAS PT LIGHT  0500   42 40  180/  9/ 10   N/A
BALT KEY BRIDGE  0448   41     130/  4/  4 1013.2R
COVE POINT       0448   43     200/  5/  5 1014.1R
LEWISETTA        0448   46 44  250/  3/  3 1013.2R
SOLOMONS ISLAND  0448      41  140/  1/  1   N/A
PINEY POINT      0448          150/  3/  3   N/A

$$




USA.gov is the U.S. government's official web portal to all federal, state and local government web resources and services.